sat.trackr.live / text

‹ back to catalog

UNKNOWN

NORAD 82051

UNKNOWN UNKNOWN UNKNOWN

§ Identity

Operator
Country
Launch date
Launch site
Launch vehicle
Mass (kg)
RCS (m²)

External: N2YO · Heavens-Above

§ Orbital elements

Epoch: 2026-05-24T00:05:00.146688Z

Period
100.15 min
Inclination
98.7404°
Eccentricity
0.0092336
Mean motion
14.37782071 rev/d
Perigee alt
699.9 km
Apogee alt
831.8 km
Semi-major
7,144.0 km
B*
1.3935e-3
RAAN
237.0709°
Arg perigee
139.5863°
Mean anomaly
221.2231°
Rev number
59,571

§ Raw data

UNKNOWN1 82051U          26144.00347392  .00004364  00000+0  13935-2 0  99902 82051  98.7404 237.0709 0092336 139.5863 221.2231 14.37782071595716

JSON: /api/v1/satellites/82051 · /tle

For live sub-satellite position, see the globe view (requires WebGL).

§ Visibility from observer

Set your observer location to see the next 7 days of passes ≥ 10°. The values pass through the URL so the page stays shareable.

No JS? Fill the form by hand. The geolocation button needs JavaScript.